Location: Oberkirch
(48.5323°N, 8.0787°E)
Time: 20:28:41
(UTC+00:00)

Tiros 1 - Pass Details

Date: 22 February 2026
Orbit: 618 x 649 km, 48.4° (Epoch: 5 March)

Event Time Altitude Azimuth Distance (km) Brightness Sun altitude
Rises 13:12:01 0° 278° (W) 2,894 10.7 28.1°
Reaches altitude 10° 13:15:34 10° 250° (WSW) 1,980 10.4 27.8°
Maximum altitude 13:17:31 13° 224° (SW) 1,808 11.0 27.7°
Drops below altitude 10° 13:19:27 10° 199° (SSW) 1,973 11.3 27.5°
Sets 13:22:59 0° 170° (S) 2,873 11.2 27.2°
